PHENX84 YMGD-YALJ

Flight info

Callsign PHENX84
Flight time N/A
Altitude 2000
Route YMGD YMGB YRNG YALJ
Aircraft C172/L-SFG/C

Departure

Time 2026-04-17 12:47
Airport Maningrida Airport (YMGD)

Arrival

Time N/A
Airport YALJ
Time Latitude Longitude Altitude Speed Heading
2026-04-17 12:26 -12.05473 134.23289 94 ft 0 kts 70°
2026-04-17 12:42 -12.05471 134.23294 97 ft 5 kts 66°
2026-04-17 12:42 -12.05431 134.23324 96 ft 8 kts 35°
2026-04-17 12:42 -12.05384 134.23329 97 ft 7 kts 327°
2026-04-17 12:43 -12.05344 134.23305 96 ft 7 kts 330°
2026-04-17 12:43 -12.05298 134.23270 96 ft 4 kts 332°
2026-04-17 12:43 -12.05290 134.23278 96 ft 5 kts 99°
2026-04-17 12:43 -12.05302 134.23296 97 ft 0 kts 137°
2026-04-17 12:44 -12.05304 134.23297 97 ft 0 kts 148°
2026-04-17 12:46 -12.05448 134.23386 95 ft 50 kts 150°
2026-04-17 12:46 -12.05829 134.23626 198 ft 68 kts 146°
2026-04-17 12:47 -12.06222 134.23998 301 ft 82 kts 130°
2026-04-17 12:47 -12.06407 134.24567 368 ft 96 kts 104°
2026-04-17 12:47 -12.06440 134.25198 617 ft 92 kts 84°
2026-04-17 12:47 -12.06378 134.25819 842 ft 91 kts 91°
2026-04-17 12:48 -12.06293 134.26510 900 ft 105 kts 76°
2026-04-17 12:48 -12.06147 134.27256 951 ft 112 kts 84°
2026-04-17 12:48 -12.06009 134.28049 954 ft 115 kts 82°
2026-04-17 12:48 -12.05883 134.28869 960 ft 117 kts 83°
2026-04-17 12:49 -12.05744 134.29643 938 ft 104 kts 82°
2026-04-17 12:49 -12.05609 134.30324 929 ft 92 kts 81°
2026-04-17 12:49 -12.05506 134.30927 939 ft 82 kts 82°
2026-04-17 12:49 -12.05432 134.31480 933 ft 76 kts 91°
2026-04-17 12:50 -12.05473 134.32018 945 ft 80 kts 92°
2026-04-17 12:50 -12.05486 134.32616 956 ft 89 kts 92°
2026-04-17 12:50 -12.05497 134.33266 959 ft 94 kts 93°
2026-04-17 12:50 -12.05507 134.33942 953 ft 93 kts 92°
2026-04-17 12:51 -12.05544 134.34589 953 ft 91 kts 94°
2026-04-17 12:51 -12.05570 134.35233 950 ft 90 kts 92°
2026-04-17 12:51 -12.05602 134.35870 952 ft 93 kts 95°
2026-04-17 12:51 -12.05613 134.36536 945 ft 93 kts 91°
2026-04-17 12:52 -12.05657 134.37183 950 ft 91 kts 93°
2026-04-17 12:52 -12.05702 134.37819 949 ft 89 kts 94°
2026-04-17 12:52 -12.05736 134.38473 957 ft 95 kts 93°
2026-04-17 12:52 -12.05745 134.39163 957 ft 98 kts 93°
2026-04-17 12:53 -12.05758 134.39855 950 ft 97 kts 92°
2026-04-17 12:53 -12.05789 134.40545 944 ft 97 kts 93°
2026-04-17 12:53 -12.05819 134.41226 948 ft 96 kts 94°
2026-04-17 12:53 -12.05840 134.41915 948 ft 97 kts 92°
2026-04-17 12:54 -12.05868 134.42601 957 ft 97 kts 94°
2026-04-17 12:54 -12.05882 134.43327 961 ft 108 kts 92°
2026-04-17 12:54 -12.05910 134.44122 955 ft 114 kts 94°
2026-04-17 12:54 -12.05998 134.44930 955 ft 115 kts 99°
2026-04-17 12:55 -12.06094 134.45742 954 ft 115 kts 98°
2026-04-17 12:55 -12.06186 134.46553 957 ft 115 kts 98°
2026-04-17 12:55 -12.06239 134.47368 948 ft 115 kts 93°
2026-04-17 12:55 -12.06244 134.48160 940 ft 110 kts 93°
2026-04-17 12:56 -12.06273 134.48931 941 ft 108 kts 93°
2026-04-17 12:56 -12.06299 134.49701 950 ft 111 kts 95°
2026-04-17 12:56 -12.06292 134.50504 949 ft 115 kts 93°
2026-04-17 12:56 -12.06286 134.51325 947 ft 116 kts 92°
2026-04-17 12:57 -12.06304 134.52143 954 ft 114 kts 94°
2026-04-17 12:57 -12.06317 134.52953 954 ft 114 kts 93°
2026-04-17 12:57 -12.06338 134.53767 951 ft 116 kts 95°
2026-04-17 12:57 -12.06423 134.54592 955 ft 116 kts 98°
2026-04-17 12:58 -12.06521 134.55421 955 ft 119 kts 98°
2026-04-17 12:58 -12.06620 134.56248 957 ft 118 kts 98°
2026-04-17 12:58 -12.06703 134.57088 952 ft 119 kts 94°
2026-04-17 12:58 -12.06728 134.57935 952 ft 120 kts 93°
2026-04-17 12:59 -12.06751 134.58785 949 ft 119 kts 93°
2026-04-17 12:59 -12.06773 134.59630 949 ft 119 kts 93°
2026-04-17 12:59 -12.06791 134.60475 948 ft 119 kts 93°
2026-04-17 12:59 -12.06810 134.61318 948 ft 119 kts 93°
2026-04-17 13:00 -12.06830 134.62168 953 ft 120 kts 93°
2026-04-17 13:00 -12.06851 134.63025 953 ft 121 kts 93°
2026-04-17 13:00 -12.06873 134.63879 953 ft 120 kts 93°
2026-04-17 13:00 -12.06903 134.64731 955 ft 120 kts 94°
2026-04-17 13:01 -12.06924 134.65586 953 ft 120 kts 93°
2026-04-17 13:01 -12.06948 134.66434 957 ft 119 kts 93°
2026-04-17 13:01 -12.06971 134.67246 941 ft 113 kts 93°
2026-04-17 13:01 -12.06991 134.68037 942 ft 110 kts 93°
2026-04-17 13:02 -12.07011 134.68818 941 ft 109 kts 93°
2026-04-17 13:02 -12.07031 134.69583 941 ft 110 kts 93°
2026-04-17 13:02 -12.07049 134.70357 948 ft 108 kts 93°
2026-04-17 13:02 -12.07076 134.71123 942 ft 108 kts 93°
2026-04-17 13:03 -12.07099 134.71891 977 ft 105 kts 93°
2026-04-17 13:03 -12.07117 134.72633 998 ft 105 kts 93°
2026-04-17 13:03 -12.07141 134.73384 999 ft 107 kts 93°
2026-04-17 13:03 -12.07158 134.74148 998 ft 107 kts 93°
2026-04-17 13:04 -12.07180 134.74909 1001 ft 107 kts 93°
2026-04-17 13:04 -12.07198 134.75671 997 ft 107 kts 93°
2026-04-17 13:04 -12.07216 134.76430 997 ft 107 kts 94°
2026-04-17 13:04 -12.07230 134.77192 996 ft 107 kts 93°
2026-04-17 13:05 -12.07247 134.77949 1000 ft 106 kts 93°
2026-04-17 13:05 -12.07262 134.78708 1002 ft 107 kts 93°
2026-04-17 13:05 -12.07275 134.79459 1000 ft 105 kts 93°
2026-04-17 13:05 -12.07291 134.80202 998 ft 104 kts 93°
2026-04-17 13:06 -12.07299 134.80941 994 ft 104 kts 92°
2026-04-17 13:06 -12.07314 134.81665 999 ft 101 kts 93°
2026-04-17 13:06 -12.07353 134.82384 1000 ft 101 kts 99°
2026-04-17 13:06 -12.07411 134.83103 999 ft 102 kts 96°
2026-04-17 13:07 -12.07421 134.83827 998 ft 101 kts 92°
2026-04-17 13:07 -12.07426 134.84546 999 ft 101 kts 95°
2026-04-17 13:07 -12.07530 134.85269 1002 ft 106 kts 107°
2026-04-17 13:07 -12.07715 134.85708 1087 ft 97 kts 118°
2026-04-17 13:08 -12.08005 134.86305 887 ft 96 kts 118°
2026-04-17 13:08 -12.08308 134.86904 722 ft 95 kts 117°
2026-04-17 13:08 -12.08599 134.87546 504 ft 104 kts 115°
2026-04-17 13:08 -12.08939 134.88207 298 ft 104 kts 120°
2026-04-17 13:09 -12.09263 134.88843 90 ft 97 kts 118°
2026-04-17 13:09 -12.09548 134.89429 49 ft 93 kts 115°
2026-04-17 13:09 -12.09803 134.90025 213 ft 95 kts 120°
2026-04-17 13:09 -12.10339 134.90382 365 ft 95 kts 166°
2026-04-17 13:10 -12.11003 134.90462 532 ft 94 kts 172°
2026-04-17 13:10 -12.11678 134.90442 627 ft 101 kts 186°
2026-04-17 13:10 -12.12356 134.90236 723 ft 105 kts 200°
2026-04-17 13:10 -12.13081 134.90004 808 ft 108 kts 195°
2026-04-17 13:11 -12.13788 134.89877 965 ft 101 kts 179°
2026-04-17 13:11 -12.14516 134.89813 1003 ft 109 kts 181°
2026-04-17 13:11 -12.15295 134.89761 1014 ft 115 kts 178°
2026-04-17 13:11 -12.16103 134.89725 1016 ft 115 kts 179°
2026-04-17 13:12 -12.16898 134.89690 1012 ft 114 kts 179°
2026-04-17 13:12 -12.18482 134.89615 1013 ft 113 kts 179°
2026-04-17 13:12 -12.19264 134.89575 1006 ft 112 kts 179°
2026-04-17 13:13 -12.20036 134.89530 1011 ft 111 kts 179°
2026-04-17 13:13 -12.20805 134.89493 1008 ft 110 kts 179°
2026-04-17 13:13 -12.21570 134.89453 1006 ft 110 kts 179°
2026-04-17 13:13 -12.22324 134.89410 949 ft 110 kts 180°
2026-04-17 13:14 -12.23089 134.89381 868 ft 110 kts 179°
2026-04-17 13:14 -12.23854 134.89348 816 ft 109 kts 180°
2026-04-17 13:14 -12.24617 134.89327 699 ft 110 kts 180°
2026-04-17 13:14 -12.25382 134.89318 587 ft 110 kts 179°
2026-04-17 13:15 -12.26150 134.89312 509 ft 109 kts 179°
2026-04-17 13:15 -12.26890 134.89317 506 ft 104 kts 179°
2026-04-17 13:15 -12.27603 134.89323 499 ft 101 kts 179°
2026-04-17 13:15 -12.28297 134.89329 504 ft 99 kts 179°
2026-04-17 13:16 -12.28988 134.89333 504 ft 99 kts 179°
2026-04-17 13:16 -12.29689 134.89338 511 ft 103 kts 179°
2026-04-17 13:16 -12.30398 134.89344 668 ft 96 kts 179°
2026-04-17 13:16 -12.31053 134.89335 914 ft 94 kts 179°
2026-04-17 13:17 -12.31698 134.89313 1079 ft 95 kts 178°
2026-04-17 13:17 -12.32419 134.89268 1119 ft 110 kts 180°
2026-04-17 13:17 -12.33219 134.89226 1117 ft 120 kts 179°
2026-04-17 13:17 -12.34045 134.89183 1118 ft 121 kts 179°
2026-04-17 13:18 -12.34882 134.89140 1121 ft 119 kts 179°
2026-04-17 13:18 -12.35717 134.89094 1026 ft 122 kts 179°
2026-04-17 13:18 -12.36547 134.89059 1014 ft 117 kts 179°
2026-04-17 13:18 -12.37177 134.88598 961 ft 126 kts 255°
2026-04-17 13:19 -12.37029 134.87762 1023 ft 121 kts 300°
2026-04-17 13:19 -12.36475 134.87138 1051 ft 120 kts 329°
2026-04-17 13:19 -12.35683 134.86866 1010 ft 112 kts 358°
2026-04-17 13:19 -12.35183 134.87312 820 ft 107 kts 98°
2026-04-17 13:20 -12.35555 134.87935 507 ft 103 kts 126°
2026-04-17 13:20 -12.35706 134.88593 316 ft 90 kts 86°
2026-04-17 13:20 -12.35701 134.89164 216 ft 72 kts 96°
2026-04-17 13:20 -12.35714 134.89676 263 ft 79 kts 89°
2026-04-17 13:21 -12.35697 134.90262 496 ft 75 kts 90°
2026-04-17 13:21 -12.35847 134.90793 598 ft 89 kts 149°
2026-04-17 13:21 -12.36444 134.90584 607 ft 110 kts 230°
2026-04-17 13:21 -12.37084 134.90187 762 ft 104 kts 198°
2026-04-17 13:22 -12.37708 134.89910 999 ft 99 kts 200°
2026-04-17 13:22 -12.38385 134.89591 1014 ft 113 kts 201°
2026-04-17 13:22 -12.39132 134.89243 1020 ft 121 kts 201°
2026-04-17 13:22 -12.39916 134.88880 1019 ft 125 kts 201°
2026-04-17 13:23 -12.40713 134.88511 1021 ft 126 kts 201°
2026-04-17 13:23 -12.41504 134.88142 1022 ft 125 kts 201°
2026-04-17 13:23 -12.42302 134.87781 1014 ft 124 kts 200°
2026-04-17 13:23 -12.43086 134.87433 1010 ft 122 kts 201°
2026-04-17 13:24 -12.43860 134.87090 1007 ft 121 kts 201°
2026-04-17 13:24 -12.44636 134.86748 1007 ft 121 kts 200°
2026-04-17 13:24 -12.45408 134.86401 1009 ft 121 kts 200°
2026-04-17 13:24 -12.46180 134.86060 1007 ft 121 kts 200°
2026-04-17 13:25 -12.46954 134.85718 1007 ft 121 kts 200°
2026-04-17 13:25 -12.47728 134.85373 1011 ft 121 kts 200°
2026-04-17 13:25 -12.48502 134.85030 1006 ft 121 kts 200°
2026-04-17 13:25 -12.49268 134.84688 1006 ft 120 kts 200°
2026-04-17 13:26 -12.50029 134.84350 1005 ft 119 kts 200°
2026-04-17 13:26 -12.50786 134.84016 1003 ft 118 kts 200°
2026-04-17 13:26 -12.51539 134.83681 1006 ft 118 kts 200°
2026-04-17 13:26 -12.52289 134.83349 1008 ft 117 kts 200°
2026-04-17 13:27 -12.53039 134.83015 1009 ft 117 kts 201°
2026-04-17 13:27 -12.53793 134.82682 1005 ft 117 kts 202°
2026-04-17 13:27 -12.54412 134.82131 1016 ft 121 kts 228°
2026-04-17 13:27 -12.54979 134.81479 1021 ft 124 kts 226°
2026-04-17 13:28 -12.55549 134.80811 1018 ft 125 kts 225°
2026-04-17 13:28 -12.56123 134.80142 1021 ft 126 kts 226°
2026-04-17 13:28 -12.56696 134.79472 1022 ft 125 kts 226°
2026-04-17 13:28 -12.57270 134.78803 1023 ft 125 kts 226°
2026-04-17 13:29 -12.58006 134.78417 1006 ft 120 kts 176°
2026-04-17 13:29 -12.58758 134.78643 908 ft 110 kts 158°
2026-04-17 13:29 -12.59486 134.78860 758 ft 108 kts 168°
2026-04-17 13:29 -12.60210 134.78932 700 ft 101 kts 179°
2026-04-17 13:30 -12.60893 134.78894 691 ft 97 kts 183°
2026-04-17 13:30 -12.61552 134.78798 703 ft 92 kts 188°
2026-04-17 13:30 -12.62202 134.78684 509 ft 107 kts 178°
2026-04-17 13:30 -12.62922 134.78670 562 ft 92 kts 186°
2026-04-17 13:31 -12.63552 134.78587 548 ft 92 kts 188°
2026-04-17 13:31 -12.64164 134.78415 582 ft 90 kts 198°
2026-04-17 13:31 -12.64754 134.78172 625 ft 88 kts 199°
2026-04-17 13:31 -12.65314 134.77929 666 ft 90 kts 204°
2026-04-17 13:32 -12.65924 134.77647 610 ft 99 kts 198°
2026-04-17 13:32 -12.66567 134.77445 676 ft 94 kts 194°
2026-04-17 13:32 -12.67178 134.77228 741 ft 94 kts 207°
2026-04-17 13:32 -12.67456 134.76660 747 ft 99 kts 284°
2026-04-17 13:33 -12.67063 134.76094 767 ft 96 kts 303°
2026-04-17 13:33 -12.66800 134.75517 892 ft 85 kts 292°
2026-04-17 13:33 -12.66624 134.74914 939 ft 89 kts 283°
2026-04-17 13:33 -12.66492 134.74275 960 ft 96 kts 285°
2026-04-17 13:34 -12.66258 134.73613 959 ft 100 kts 296°
2026-04-17 13:34 -12.65681 134.73391 931 ft 96 kts 26°
2026-04-17 13:34 -12.65328 134.73939 824 ft 100 kts 91°
2026-04-17 13:34 -12.65460 134.74597 818 ft 95 kts 104°
2026-04-17 13:35 -12.65606 134.75258 745 ft 96 kts 104°
2026-04-17 13:35 -12.65724 134.75870 669 ft 83 kts 104°
2026-04-17 13:35 -12.65857 134.76440 462 ft 82 kts 106°
2026-04-17 13:35 -12.66017 134.76999 279 ft 81 kts 108°
2026-04-17 13:36 -12.66189 134.77542 163 ft 71 kts 109°
2026-04-17 13:36 -12.66314 134.77927 172 ft 44 kts 110°
2026-04-17 13:36 -12.66375 134.78062 178 ft 7 kts 136°
2026-04-17 13:36 -12.66381 134.78076 177 ft 0 kts 104°
2026-04-17 13:37 -12.66372 134.78078 177 ft 3 kts 288°
2026-04-17 13:37 -12.66369 134.78065 178 ft 4 kts 284°
2026-04-17 13:37 -12.66355 134.78010 177 ft 12 kts 283°
2026-04-17 13:37 -12.66321 134.77907 172 ft 19 kts 289°
2026-04-17 13:38 -12.66274 134.77756 161 ft 25 kts 288°
2026-04-17 13:38 -12.66242 134.77595 151 ft 21 kts 295°
2026-04-17 13:38 -12.66175 134.77471 142 ft 19 kts 299°
2026-04-17 13:38 -12.66108 134.77362 139 ft 15 kts 304°
2026-04-17 13:39 -12.66085 134.77329 137 ft 0 kts 285°